Location: Limoges
(45.8500°N, 1.2500°E)
Time: 20:20:46
(UTC+02:00)

ISS - Visible Passes

Search period start: 24 September 2021 00:00
Search period end: 04 October 2021 00:00
Orbit: 419 x 423 km, 51.6° (Epoch: 24 September)

Date Brightness Start Highest point End Pass type
(mag) Time Alt. Az. Time Alt. Az. Time Alt. Az.
24 Sep -2.3 21:00:09 10° WNW 21:03:12 31° N 21:05:32 15° NE visible
24 Sep -0.8 22:37:27 10° NW 22:38:31 17° NW 22:38:31 17° NW visible
25 Sep -2.5 20:13:02 10° W 20:16:10 35° NNW 20:19:18 10° NE visible
25 Sep -2.3 21:50:31 10° WNW 21:53:21 31° N 21:53:21 31° N visible
26 Sep -2.3 21:03:30 10° WNW 21:06:31 29° N 21:08:10 19° NE visible
26 Sep -0.6 22:40:27 10° WNW 22:41:09 15° NW 22:41:09 15° NW visible
27 Sep -2.3 20:16:27 10° WNW 20:19:27 29° N 20:22:28 10° ENE visible
27 Sep -2.3 21:53:33 10° NW 21:55:58 35° NNW 21:55:58 35° NNW visible
28 Sep -2.7 21:06:38 10° NW 21:09:47 36° NNE 21:10:48 29° NE visible
28 Sep -0.4 22:43:27 10° WNW 22:43:47 12° WNW 22:43:47 12° WNW visible
29 Sep -2.5 20:19:39 10° WNW 20:22:44 31° N 20:25:39 11° ENE visible
29 Sep -2.2 21:56:30 10° WNW 21:58:38 36° WNW 21:58:38 36° WNW visible
30 Sep -3.6 21:09:35 10° WNW 21:12:56 60° NNE 21:13:31 49° ENE visible
01 Oct -3.1 20:22:39 10° WNW 20:25:56 45° NNE 20:28:27 15° E visible
01 Oct -1.7 21:59:34 10° WNW 22:01:27 27° W 22:01:27 27° W visible
02 Oct -3.5 21:12:33 10° WNW 21:15:53 62° SSW 21:16:27 52° SSE visible
03 Oct -3.8 20:25:35 10° WNW 20:28:58 87° NNE 20:31:31 16° ESE visible
03 Oct -0.9 22:03:17 10° W 22:04:31 15° WSW 22:04:31 15° WSW visible
